Year,Month,Day,Hour,Minute,Value (Times are PST for temperature in C)
2016,05,05,00,00,12.10
2016,05,05,00,01,12.10
2016,05,05,00,02,12.10
2016,05,05,00,03,12.10
2016,05,05,00,04,12.10
2016,05,05,00,05,12.10
2016,05,05,00,06,12.10
2016,05,05,00,07,12.10
2016,05,05,00,08,12.10
2016,05,05,00,09,12.10
2016,05,05,00,10,12.10
2016,05,05,00,11,12.10
2016,05,05,00,12,12.10
2016,05,05,00,13,12.10
2016,05,05,00,14,12.10
2016,05,05,00,15,12.10
2016,05,05,00,16,12.10
2016,05,05,00,17,12.10
2016,05,05,00,18,12.10
2016,05,05,00,19,12.10
2016,05,05,00,20,12.10
2016,05,05,00,21,12.10
2016,05,05,00,22,12.20
2016,05,05,00,23,12.20
2016,05,05,00,24,12.20
2016,05,05,00,25,12.20
2016,05,05,00,26,12.20
2016,05,05,00,27,12.20
2016,05,05,00,28,12.20
2016,05,05,00,29,12.20
2016,05,05,00,30,12.20
2016,05,05,00,31,12.20
2016,05,05,00,32,12.20
2016,05,05,00,33,12.20
2016,05,05,00,34,12.20
2016,05,05,00,35,12.20
2016,05,05,00,36,12.20
2016,05,05,00,37,12.20
2016,05,05,00,38,12.20
2016,05,05,00,39,12.20
2016,05,05,00,40,12.20
2016,05,05,00,41,12.20
2016,05,05,00,42,12.20
2016,05,05,00,43,12.20
2016,05,05,00,44,12.20
2016,05,05,00,45,12.20
2016,05,05,00,46,12.20
2016,05,05,00,47,12.20
2016,05,05,00,48,12.20
2016,05,05,00,49,12.20
2016,05,05,00,50,12.10
2016,05,05,00,51,12.10
2016,05,05,00,52,12.10
2016,05,05,00,53,12.10
2016,05,05,00,54,12.10
2016,05,05,00,55,12.10
2016,05,05,00,56,12.10
2016,05,05,00,57,12.10
2016,05,05,00,58,12.10
2016,05,05,00,59,12.00
2016,05,05,01,00,12.00
2016,05,05,01,01,12.00
2016,05,05,01,02,12.00
2016,05,05,01,03,12.00
2016,05,05,01,04,11.90
2016,05,05,01,05,11.90
2016,05,05,01,06,11.90
2016,05,05,01,07,11.90
2016,05,05,01,08,11.90
2016,05,05,01,09,11.90
2016,05,05,01,10,11.90
2016,05,05,01,11,11.90
2016,05,05,01,12,11.90
2016,05,05,01,13,11.90
2016,05,05,01,14,11.90
2016,05,05,01,15,11.80
2016,05,05,01,16,11.80
2016,05,05,01,17,11.80
2016,05,05,01,18,11.80
2016,05,05,01,19,11.80
2016,05,05,01,20,11.80
2016,05,05,01,21,11.80
2016,05,05,01,22,11.80
2016,05,05,01,23,11.70
2016,05,05,01,24,11.70
2016,05,05,01,25,11.70
2016,05,05,01,26,11.70
2016,05,05,01,27,11.70
2016,05,05,01,28,11.70
2016,05,05,01,29,11.70
2016,05,05,01,30,11.70
2016,05,05,01,31,11.70
2016,05,05,01,32,11.70
2016,05,05,01,33,11.70
2016,05,05,01,34,11.60
2016,05,05,01,35,11.60
2016,05,05,01,36,11.60
2016,05,05,01,37,11.60
2016,05,05,01,38,11.60
2016,05,05,01,39,11.60
2016,05,05,01,40,11.60
2016,05,05,01,41,11.60
2016,05,05,01,42,11.50
2016,05,05,01,43,11.50
2016,05,05,01,44,11.50
2016,05,05,01,45,11.50
2016,05,05,01,46,11.40
2016,05,05,01,47,11.40
2016,05,05,01,48,11.40
2016,05,05,01,49,11.40
2016,05,05,01,50,11.40
2016,05,05,01,51,11.30
2016,05,05,01,52,11.30
2016,05,05,01,53,11.30
2016,05,05,01,54,11.30
2016,05,05,01,55,11.30
2016,05,05,01,56,11.20
2016,05,05,01,57,11.20
2016,05,05,01,58,11.20
2016,05,05,01,59,11.20
2016,05,05,02,00,11.20
2016,05,05,02,01,11.10
2016,05,05,02,02,11.10
2016,05,05,02,03,11.10
2016,05,05,02,04,11.10
2016,05,05,02,05,11.10
2016,05,05,02,06,11.10
2016,05,05,02,07,11.00
2016,05,05,02,08,11.00
2016,05,05,02,09,11.00
2016,05,05,02,10,11.00
2016,05,05,02,11,10.90
2016,05,05,02,12,10.90
2016,05,05,02,13,10.90
2016,05,05,02,14,10.90
2016,05,05,02,15,10.80
2016,05,05,02,16,10.80
2016,05,05,02,17,10.80
2016,05,05,02,18,10.80
2016,05,05,02,19,10.80
2016,05,05,02,20,10.80
2016,05,05,02,21,10.70
2016,05,05,02,22,10.70
2016,05,05,02,23,10.70
2016,05,05,02,24,10.70
2016,05,05,02,25,10.60
2016,05,05,02,26,10.60
2016,05,05,02,27,10.50
2016,05,05,02,28,10.50
2016,05,05,02,29,10.40
2016,05,05,02,30,10.40
2016,05,05,02,31,10.30
2016,05,05,02,32,10.30
2016,05,05,02,33,10.30
2016,05,05,02,34,10.20
2016,05,05,02,35,10.20
2016,05,05,02,36,10.10
2016,05,05,02,37,10.10
2016,05,05,02,38,10.00
2016,05,05,02,39,10.00
2016,05,05,02,40,9.90
2016,05,05,02,41,9.90
2016,05,05,02,42,9.90
2016,05,05,02,43,9.80
2016,05,05,02,44,9.80
2016,05,05,02,45,9.80
2016,05,05,02,46,9.70
2016,05,05,02,47,9.70
2016,05,05,02,48,9.70
2016,05,05,02,49,9.60
2016,05,05,02,50,9.60
2016,05,05,02,51,9.60
2016,05,05,02,52,9.60
2016,05,05,02,53,9.60
2016,05,05,02,54,9.60
2016,05,05,02,55,9.60
2016,05,05,02,56,9.50
2016,05,05,02,57,9.50
2016,05,05,02,58,9.40
2016,05,05,02,59,9.40
2016,05,05,03,00,9.40
2016,05,05,03,01,9.30
2016,05,05,03,02,9.30
2016,05,05,03,03,9.30
2016,05,05,03,04,9.20
2016,05,05,03,05,9.20
2016,05,05,03,06,9.20
2016,05,05,03,07,9.10
2016,05,05,03,08,9.10
2016,05,05,03,09,9.10
2016,05,05,03,10,9.00
2016,05,05,03,11,8.90
2016,05,05,03,12,8.90
2016,05,05,03,13,8.90
2016,05,05,03,14,8.80
2016,05,05,03,15,8.80
2016,05,05,03,16,8.80
2016,05,05,03,17,8.70
2016,05,05,03,18,8.70
2016,05,05,03,19,8.70
2016,05,05,03,20,8.60
2016,05,05,03,21,8.60
2016,05,05,03,22,8.60
2016,05,05,03,23,8.60
2016,05,05,03,24,8.60
2016,05,05,03,25,8.50
2016,05,05,03,26,8.50
2016,05,05,03,27,8.50
2016,05,05,03,28,8.40
2016,05,05,03,29,8.40
2016,05,05,03,30,8.40
2016,05,05,03,31,8.40
2016,05,05,03,32,8.30
2016,05,05,03,33,8.30
2016,05,05,03,34,8.30
2016,05,05,03,35,8.30
2016,05,05,03,36,8.30
2016,05,05,03,37,8.30
2016,05,05,03,38,8.20
2016,05,05,03,39,8.20
2016,05,05,03,40,8.20
2016,05,05,03,41,8.20
2016,05,05,03,42,8.20
2016,05,05,03,43,8.10
2016,05,05,03,44,8.10
2016,05,05,03,45,8.10
2016,05,05,03,46,8.10
2016,05,05,03,47,8.10
2016,05,05,03,48,8.10
2016,05,05,03,49,8.00
2016,05,05,03,50,8.00
2016,05,05,03,51,8.00
2016,05,05,03,52,8.00
2016,05,05,03,53,7.90
2016,05,05,03,54,7.90
2016,05,05,03,55,7.90
2016,05,05,03,56,7.80
2016,05,05,03,57,7.80
2016,05,05,03,58,7.80
2016,05,05,03,59,7.80
2016,05,05,04,00,7.80
2016,05,05,04,01,7.70
2016,05,05,04,02,7.70
2016,05,05,04,03,7.70
2016,05,05,04,04,7.70
2016,05,05,04,05,7.70
2016,05,05,04,06,7.70
2016,05,05,04,07,7.70
2016,05,05,04,08,7.60
2016,05,05,04,09,7.60
2016,05,05,04,10,7.60
2016,05,05,04,11,7.60
2016,05,05,04,12,7.60
2016,05,05,04,13,7.60
2016,05,05,04,14,7.60
2016,05,05,04,15,7.60
2016,05,05,04,16,7.60
2016,05,05,04,17,7.60
2016,05,05,04,18,7.60
2016,05,05,04,19,7.60
2016,05,05,04,20,7.50
2016,05,05,04,21,7.50
2016,05,05,04,22,7.50
2016,05,05,04,23,7.40
2016,05,05,04,24,7.40
2016,05,05,04,25,7.40
2016,05,05,04,26,7.30
2016,05,05,04,27,7.30
2016,05,05,04,28,7.30
2016,05,05,04,29,7.30
2016,05,05,04,30,7.20
2016,05,05,04,31,7.20
2016,05,05,04,32,7.20
2016,05,05,04,33,7.20
2016,05,05,04,34,7.20
2016,05,05,04,35,7.20
2016,05,05,04,36,7.20
2016,05,05,04,37,7.20
2016,05,05,04,38,7.20
2016,05,05,04,39,7.20
2016,05,05,04,40,7.10
2016,05,05,04,41,7.10
2016,05,05,04,42,7.10
2016,05,05,04,43,7.10
2016,05,05,04,44,7.10
2016,05,05,04,45,7.10
2016,05,05,04,46,7.10
2016,05,05,04,47,7.10
2016,05,05,04,48,7.10
2016,05,05,04,49,7.10
2016,05,05,04,50,7.10
2016,05,05,04,51,7.10
2016,05,05,04,52,7.10
2016,05,05,04,53,7.10
2016,05,05,04,54,7.10
2016,05,05,04,55,7.10
2016,05,05,04,56,7.10
2016,05,05,04,57,7.10
2016,05,05,04,58,7.10
2016,05,05,04,59,7.10
2016,05,05,05,00,7.10
2016,05,05,05,01,7.10
2016,05,05,05,02,7.10
2016,05,05,05,03,7.20
2016,05,05,05,04,7.20
2016,05,05,05,05,7.20
2016,05,05,05,06,7.20
2016,05,05,05,07,7.20
2016,05,05,05,08,7.20
2016,05,05,05,09,7.20
2016,05,05,05,10,7.20
2016,05,05,05,11,7.10
2016,05,05,05,12,7.10
2016,05,05,05,13,7.10
2016,05,05,05,14,7.00
2016,05,05,05,15,7.00
2016,05,05,05,16,7.00
2016,05,05,05,17,6.90
2016,05,05,05,18,6.90
2016,05,05,05,19,6.90
2016,05,05,05,20,6.90
2016,05,05,05,21,6.90
2016,05,05,05,22,6.90
2016,05,05,05,23,6.90
2016,05,05,05,24,6.80
2016,05,05,05,25,6.80
2016,05,05,05,26,6.80
2016,05,05,05,27,6.80
2016,05,05,05,28,6.80
2016,05,05,05,29,6.80
2016,05,05,05,30,6.80
2016,05,05,05,31,6.80
2016,05,05,05,32,6.80
2016,05,05,05,33,6.80
2016,05,05,05,34,6.80
2016,05,05,05,35,6.80
2016,05,05,05,36,6.70
2016,05,05,05,37,6.70
2016,05,05,05,38,6.70
2016,05,05,05,39,6.70
2016,05,05,05,40,6.70
2016,05,05,05,41,6.70
2016,05,05,05,42,6.70
2016,05,05,05,43,6.70
2016,05,05,05,44,6.70
2016,05,05,05,45,6.70
2016,05,05,05,46,6.70
2016,05,05,05,47,6.70
2016,05,05,05,48,6.70
2016,05,05,05,49,6.70
2016,05,05,05,50,6.70
2016,05,05,05,51,6.70
2016,05,05,05,52,6.70
2016,05,05,05,53,6.70
2016,05,05,05,54,6.70
2016,05,05,05,55,6.70
2016,05,05,05,56,6.70
2016,05,05,05,57,6.70
2016,05,05,05,58,6.70
2016,05,05,05,59,6.70
2016,05,05,06,00,6.70
2016,05,05,06,01,6.70
2016,05,05,06,02,6.70
2016,05,05,06,03,6.70
2016,05,05,06,04,6.70
2016,05,05,06,05,6.70
2016,05,05,06,06,6.70
2016,05,05,06,07,6.70
2016,05,05,06,08,6.60
2016,05,05,06,09,6.60
2016,05,05,06,10,6.60
2016,05,05,06,11,6.60
2016,05,05,06,12,6.60
2016,05,05,06,13,6.60
2016,05,05,06,14,6.60
2016,05,05,06,15,6.60
2016,05,05,06,16,6.60
2016,05,05,06,17,6.60
2016,05,05,06,18,6.60
2016,05,05,06,19,6.60
2016,05,05,06,20,6.60
2016,05,05,06,21,6.60
2016,05,05,06,22,6.60
2016,05,05,06,23,6.60
2016,05,05,06,24,6.60
2016,05,05,06,25,6.60
2016,05,05,06,26,6.60
2016,05,05,06,27,6.60
2016,05,05,06,28,6.60
2016,05,05,06,29,6.60
2016,05,05,06,30,6.60
2016,05,05,06,31,6.60
2016,05,05,06,32,6.60
2016,05,05,06,33,6.60
2016,05,05,06,34,6.60
2016,05,05,06,35,6.60
2016,05,05,06,36,6.60
2016,05,05,06,37,6.60
2016,05,05,06,38,6.60
2016,05,05,06,39,6.60
2016,05,05,06,40,6.60
2016,05,05,06,41,6.70
2016,05,05,06,42,6.70
2016,05,05,06,43,6.70
2016,05,05,06,44,6.70
2016,05,05,06,45,6.70
2016,05,05,06,46,6.70
2016,05,05,06,47,6.70
2016,05,05,06,48,6.70
2016,05,05,06,49,6.70
2016,05,05,06,50,6.70
2016,05,05,06,51,6.70
2016,05,05,06,52,6.80
2016,05,05,06,53,6.80
2016,05,05,06,54,6.80
2016,05,05,06,55,6.80
2016,05,05,06,56,6.80
2016,05,05,06,57,6.90
2016,05,05,06,58,6.90
2016,05,05,06,59,7.00
2016,05,05,07,00,7.00
2016,05,05,07,01,7.10
2016,05,05,07,02,7.10
2016,05,05,07,03,7.20
2016,05,05,07,04,7.20
2016,05,05,07,05,7.20
2016,05,05,07,06,7.20
2016,05,05,07,07,7.20
2016,05,05,07,08,7.20
2016,05,05,07,09,7.30
2016,05,05,07,10,7.30
2016,05,05,07,11,7.30
2016,05,05,07,12,7.40
2016,05,05,07,13,7.40
2016,05,05,07,14,7.40
2016,05,05,07,15,7.50
2016,05,05,07,16,7.60
2016,05,05,07,17,7.60
2016,05,05,07,18,7.70
2016,05,05,07,19,7.80
2016,05,05,07,20,7.80
2016,05,05,07,21,7.90
2016,05,05,07,22,8.00
2016,05,05,07,23,8.10
2016,05,05,07,24,8.20
2016,05,05,07,25,8.30
2016,05,05,07,26,8.30
2016,05,05,07,27,8.40
2016,05,05,07,28,8.50
2016,05,05,07,29,8.60
2016,05,05,07,30,8.60
2016,05,05,07,31,8.70
2016,05,05,07,32,8.70
2016,05,05,07,33,8.80
2016,05,05,07,34,8.80
2016,05,05,07,35,8.90
2016,05,05,07,36,8.90
2016,05,05,07,37,9.00
2016,05,05,07,38,9.00
2016,05,05,07,39,9.00
2016,05,05,07,40,9.00
2016,05,05,07,41,9.00
2016,05,05,07,42,9.10
2016,05,05,07,43,9.10
2016,05,05,07,44,9.20
2016,05,05,07,45,9.20
2016,05,05,07,46,9.20
2016,05,05,07,47,9.30
2016,05,05,07,48,9.30
2016,05,05,07,49,9.40
2016,05,05,07,50,9.50
2016,05,05,07,51,9.60
2016,05,05,07,52,9.70
2016,05,05,07,53,9.80
2016,05,05,07,54,9.90
2016,05,05,07,55,10.10
2016,05,05,07,56,10.20
2016,05,05,07,57,10.30
2016,05,05,07,58,10.40
2016,05,05,07,59,10.50
2016,05,05,08,00,10.60
2016,05,05,08,01,10.70
2016,05,05,08,02,10.80
2016,05,05,08,03,11.00
2016,05,05,08,04,11.10
2016,05,05,08,05,11.20
2016,05,05,08,06,11.30
2016,05,05,08,07,11.40
2016,05,05,08,08,11.50
2016,05,05,08,09,11.60
2016,05,05,08,10,11.70
2016,05,05,08,11,11.80
2016,05,05,08,12,11.80
2016,05,05,08,13,12.00
2016,05,05,08,14,12.00
2016,05,05,08,15,12.20
2016,05,05,08,16,12.30
2016,05,05,08,17,12.40
2016,05,05,08,18,12.50
2016,05,05,08,19,12.60
2016,05,05,08,20,12.60
2016,05,05,08,21,12.70
2016,05,05,08,22,12.70
2016,05,05,08,23,12.70
2016,05,05,08,24,12.80
2016,05,05,08,25,12.80
2016,05,05,08,26,12.80
2016,05,05,08,27,12.80
2016,05,05,08,28,12.80
2016,05,05,08,29,12.90
2016,05,05,08,30,13.00
2016,05,05,08,31,13.10
2016,05,05,08,32,13.10
2016,05,05,08,33,13.20
2016,05,05,08,34,13.30
2016,05,05,08,35,13.30
2016,05,05,08,36,13.40
2016,05,05,08,37,13.40
2016,05,05,08,38,13.50
2016,05,05,08,39,13.60
2016,05,05,08,40,13.60
2016,05,05,08,41,13.70
2016,05,05,08,42,13.80
2016,05,05,08,43,13.90
2016,05,05,08,44,14.00
2016,05,05,08,45,14.10
2016,05,05,08,46,14.10
2016,05,05,08,47,14.20
2016,05,05,08,48,14.20
2016,05,05,08,49,14.20
2016,05,05,08,50,14.20
2016,05,05,08,51,14.20
2016,05,05,08,52,14.20
2016,05,05,08,53,14.20
2016,05,05,08,54,14.20
2016,05,05,08,55,14.20
2016,05,05,08,56,14.30
2016,05,05,08,57,14.30
2016,05,05,08,58,14.40
2016,05,05,08,59,14.40
2016,05,05,09,00,14.40
2016,05,05,09,01,14.50
2016,05,05,09,02,14.50
2016,05,05,09,03,14.60
2016,05,05,09,04,14.60
2016,05,05,09,05,14.60
2016,05,05,09,06,14.70
2016,05,05,09,07,14.70
2016,05,05,09,08,14.70
2016,05,05,09,09,14.70
2016,05,05,09,10,14.80
2016,05,05,09,11,14.90
2016,05,05,09,12,14.90
2016,05,05,09,13,15.00
2016,05,05,09,14,15.00
2016,05,05,09,15,15.00
2016,05,05,09,16,15.00
2016,05,05,09,17,15.00
2016,05,05,09,18,14.90
2016,05,05,09,19,14.80
2016,05,05,09,20,14.80
2016,05,05,09,21,14.80
2016,05,05,09,22,14.80
2016,05,05,09,23,14.80
2016,05,05,09,24,14.80
2016,05,05,09,25,14.90
2016,05,05,09,26,15.00
2016,05,05,09,27,15.00
2016,05,05,09,28,15.00
2016,05,05,09,29,15.00
2016,05,05,09,30,15.00
2016,05,05,09,31,14.80
2016,05,05,09,32,14.80
2016,05,05,09,33,14.80
2016,05,05,09,34,14.60
2016,05,05,09,35,14.50
2016,05,05,09,36,14.40
2016,05,05,09,37,14.30
2016,05,05,09,38,14.20
2016,05,05,09,39,14.20
2016,05,05,09,40,14.20
2016,05,05,09,41,14.20
2016,05,05,09,42,14.20
2016,05,05,09,43,14.20
2016,05,05,09,44,14.20
2016,05,05,09,45,14.20
2016,05,05,09,46,14.20
2016,05,05,09,47,14.30
2016,05,05,09,48,14.30
2016,05,05,09,49,14.30
2016,05,05,09,50,14.30
2016,05,05,09,51,14.20
2016,05,05,09,52,14.20
2016,05,05,09,53,14.20
2016,05,05,09,54,14.20
2016,05,05,09,55,14.20
2016,05,05,09,56,14.20
2016,05,05,09,57,14.30
2016,05,05,09,58,14.30
2016,05,05,09,59,14.40
2016,05,05,10,00,14.40
2016,05,05,10,01,14.50
2016,05,05,10,02,14.60
2016,05,05,10,03,14.70
2016,05,05,10,04,14.90
2016,05,05,10,05,15.00
2016,05,05,10,06,15.00
2016,05,05,10,07,15.00
2016,05,05,10,08,15.20
2016,05,05,10,09,15.30
2016,05,05,10,10,15.40
2016,05,05,10,11,15.50
2016,05,05,10,12,15.50
2016,05,05,10,13,15.60
2016,05,05,10,14,15.70
2016,05,05,10,15,15.70
2016,05,05,10,16,15.80
2016,05,05,10,17,15.90
2016,05,05,10,18,16.00
2016,05,05,10,19,16.10
2016,05,05,10,20,16.20
2016,05,05,10,21,16.20
2016,05,05,10,22,16.20
2016,05,05,10,23,16.20
2016,05,05,10,24,16.10
2016,05,05,10,25,16.10
2016,05,05,10,26,16.10
2016,05,05,10,27,16.10
2016,05,05,10,28,16.20
2016,05,05,10,29,16.20
2016,05,05,10,30,16.30
2016,05,05,10,31,16.40
2016,05,05,10,32,16.50
2016,05,05,10,33,16.60
2016,05,05,10,34,16.70
2016,05,05,10,35,16.80
2016,05,05,10,36,16.90
2016,05,05,10,37,16.90
2016,05,05,10,38,17.00
2016,05,05,10,39,16.80
2016,05,05,10,40,16.60
2016,05,05,10,41,16.50
2016,05,05,10,42,16.40
2016,05,05,10,43,16.30
2016,05,05,10,44,16.30
2016,05,05,10,45,16.20
2016,05,05,10,46,16.20
2016,05,05,10,47,16.20
2016,05,05,10,48,16.10
2016,05,05,10,49,15.90
2016,05,05,10,50,15.80
2016,05,05,10,51,15.70
2016,05,05,10,52,15.60
2016,05,05,10,53,15.50
2016,05,05,10,54,15.50
2016,05,05,10,55,15.40
2016,05,05,10,56,15.40
2016,05,05,10,57,15.40
2016,05,05,10,58,15.40
2016,05,05,10,59,15.50
2016,05,05,11,00,15.50
2016,05,05,11,01,15.40
2016,05,05,11,02,15.30
2016,05,05,11,03,15.30
2016,05,05,11,04,15.20
2016,05,05,11,05,15.00
2016,05,05,11,06,15.00
2016,05,05,11,07,15.10
2016,05,05,11,08,15.10
2016,05,05,11,09,15.10
2016,05,05,11,10,15.20
2016,05,05,11,11,15.20
2016,05,05,11,12,15.20
2016,05,05,11,13,15.10
2016,05,05,11,14,15.10
2016,05,05,11,15,15.10
2016,05,05,11,16,15.10
2016,05,05,11,17,15.10
2016,05,05,11,18,15.20
2016,05,05,11,19,15.30
2016,05,05,11,20,15.30
2016,05,05,11,21,15.30
2016,05,05,11,22,15.20
2016,05,05,11,23,15.30
2016,05,05,11,24,15.30
2016,05,05,11,25,15.40
2016,05,05,11,26,15.40
2016,05,05,11,27,15.50
2016,05,05,11,28,15.60
2016,05,05,11,29,15.70
2016,05,05,11,30,15.80
2016,05,05,11,31,15.80
2016,05,05,11,32,15.90
2016,05,05,11,33,15.90
2016,05,05,11,34,15.90
2016,05,05,11,35,15.90
2016,05,05,11,36,15.90
2016,05,05,11,37,15.90
2016,05,05,11,38,15.80
2016,05,05,11,39,15.80
2016,05,05,11,40,15.90
2016,05,05,11,41,15.80
2016,05,05,11,42,15.80
2016,05,05,11,43,15.80
2016,05,05,11,44,15.80
2016,05,05,11,45,15.80
2016,05,05,11,46,15.80
2016,05,05,11,47,15.80
2016,05,05,11,48,15.90
2016,05,05,11,49,15.90
2016,05,05,11,50,16.00
2016,05,05,11,51,16.00
2016,05,05,11,52,16.10
2016,05,05,11,53,16.10
2016,05,05,11,54,16.20
2016,05,05,11,55,16.30
2016,05,05,11,56,16.30
2016,05,05,11,57,16.30
2016,05,05,11,58,16.30
2016,05,05,11,59,16.30
2016,05,05,12,00,16.30
2016,05,05,12,01,16.30
2016,05,05,12,02,16.30
2016,05,05,12,03,16.30
2016,05,05,12,04,16.30
2016,05,05,12,05,16.40
2016,05,05,12,06,16.40
2016,05,05,12,07,16.50
2016,05,05,12,08,16.50
2016,05,05,12,09,16.60
2016,05,05,12,10,16.60
2016,05,05,12,11,16.60
2016,05,05,12,12,16.70
2016,05,05,12,13,16.70
2016,05,05,12,14,16.80
2016,05,05,12,15,16.80
2016,05,05,12,16,16.80
2016,05,05,12,17,16.90
2016,05,05,12,18,17.00
2016,05,05,12,19,17.00
2016,05,05,12,20,16.90
2016,05,05,12,21,16.80
2016,05,05,12,22,16.70
2016,05,05,12,23,16.70
2016,05,05,12,24,16.60
2016,05,05,12,25,16.60
2016,05,05,12,26,16.50
2016,05,05,12,27,16.50
2016,05,05,12,28,16.60
2016,05,05,12,29,16.60
2016,05,05,12,30,16.70
2016,05,05,12,31,16.70
2016,05,05,12,32,16.80
2016,05,05,12,33,16.80
2016,05,05,12,34,16.90
2016,05,05,12,35,16.90
2016,05,05,12,36,16.90
2016,05,05,12,37,16.80
2016,05,05,12,38,16.70
2016,05,05,12,39,16.70
2016,05,05,12,40,16.70
2016,05,05,12,41,16.80
2016,05,05,12,42,16.90
2016,05,05,12,43,17.00
2016,05,05,12,44,17.10
2016,05,05,12,45,17.10
2016,05,05,12,46,17.20
2016,05,05,12,47,17.30
2016,05,05,12,48,17.40
2016,05,05,12,49,17.40
2016,05,05,12,50,17.50
2016,05,05,12,51,17.40
2016,05,05,12,52,17.40
2016,05,05,12,53,17.40
2016,05,05,12,54,17.30
2016,05,05,12,55,17.40
2016,05,05,12,56,17.40
2016,05,05,12,57,17.50
2016,05,05,12,58,17.50
2016,05,05,12,59,17.40
2016,05,05,13,00,17.40
2016,05,05,13,01,17.30
2016,05,05,13,02,17.30
2016,05,05,13,03,17.30
2016,05,05,13,04,17.40
2016,05,05,13,05,17.40
2016,05,05,13,06,17.30
2016,05,05,13,07,17.30
2016,05,05,13,08,17.30
2016,05,05,13,09,17.30
2016,05,05,13,10,17.20
2016,05,05,13,11,17.20
2016,05,05,13,12,17.20
2016,05,05,13,13,17.20
2016,05,05,13,14,17.30
2016,05,05,13,15,17.40
2016,05,05,13,16,17.50
2016,05,05,13,17,17.50
2016,05,05,13,18,17.60
2016,05,05,13,19,17.70
2016,05,05,13,20,17.70
2016,05,05,13,21,17.70
2016,05,05,13,22,17.70
2016,05,05,13,23,17.70
2016,05,05,13,24,17.70
2016,05,05,13,25,17.70
2016,05,05,13,26,17.70
2016,05,05,13,27,17.70
2016,05,05,13,28,17.80
2016,05,05,13,29,17.80
2016,05,05,13,30,17.80
2016,05,05,13,31,17.90
2016,05,05,13,32,17.90
2016,05,05,13,33,18.00
2016,05,05,13,34,18.10
2016,05,05,13,35,18.20
2016,05,05,13,36,18.30
2016,05,05,13,37,18.40
2016,05,05,13,38,18.40
2016,05,05,13,39,18.40
2016,05,05,13,40,18.50
2016,05,05,13,41,18.50
2016,05,05,13,42,18.50
2016,05,05,13,43,18.40
2016,05,05,13,44,18.30
2016,05,05,13,45,18.20
2016,05,05,13,46,18.10
2016,05,05,13,47,18.10
2016,05,05,13,48,18.10
2016,05,05,13,49,18.10
2016,05,05,13,50,18.10
2016,05,05,13,51,18.20
2016,05,05,13,52,18.40
2016,05,05,13,53,18.50
2016,05,05,13,54,18.40
2016,05,05,13,55,18.40
2016,05,05,13,56,18.40
2016,05,05,13,57,18.40
2016,05,05,13,58,18.50
2016,05,05,13,59,18.50
2016,05,05,14,00,18.50
2016,05,05,14,01,18.40
2016,05,05,14,02,18.30
2016,05,05,14,03,18.30
2016,05,05,14,04,18.20
2016,05,05,14,05,18.20
2016,05,05,14,06,18.20
2016,05,05,14,07,18.20
2016,05,05,14,08,18.30
2016,05,05,14,09,18.40
2016,05,05,14,10,18.60
2016,05,05,14,11,18.70
2016,05,05,14,12,18.70
2016,05,05,14,13,18.80
2016,05,05,14,14,18.90
2016,05,05,14,15,18.90
2016,05,05,14,16,18.90
2016,05,05,14,17,18.80
2016,05,05,14,18,18.80
2016,05,05,14,19,18.80
2016,05,05,14,20,18.80
2016,05,05,14,21,18.80
2016,05,05,14,22,18.80
2016,05,05,14,23,18.80
2016,05,05,14,24,18.90
2016,05,05,14,25,19.00
2016,05,05,14,26,19.10
2016,05,05,14,27,19.10
2016,05,05,14,28,19.00
2016,05,05,14,29,18.90
2016,05,05,14,30,18.90
2016,05,05,14,31,18.80
2016,05,05,14,32,18.70
2016,05,05,14,33,18.70
2016,05,05,14,34,18.70
2016,05,05,14,35,18.70
2016,05,05,14,36,18.80
2016,05,05,14,37,18.80
2016,05,05,14,38,18.90
2016,05,05,14,39,19.00
2016,05,05,14,40,19.00
2016,05,05,14,41,19.10
2016,05,05,14,42,19.10
2016,05,05,14,43,19.20
2016,05,05,14,44,19.20
2016,05,05,14,45,19.10
2016,05,05,14,46,19.10
2016,05,05,14,47,19.10
2016,05,05,14,48,19.00
2016,05,05,14,49,18.90
2016,05,05,14,50,18.90
2016,05,05,14,51,18.90
2016,05,05,14,52,18.80
2016,05,05,14,53,18.70
2016,05,05,14,54,18.70
2016,05,05,14,55,18.80
2016,05,05,14,56,18.80
2016,05,05,14,57,18.70
2016,05,05,14,58,18.60
2016,05,05,14,59,18.50
2016,05,05,15,00,18.40
2016,05,05,15,01,18.30
2016,05,05,15,02,18.20
2016,05,05,15,03,18.20
2016,05,05,15,04,18.30
2016,05,05,15,05,18.40
2016,05,05,15,06,18.40
2016,05,05,15,07,18.50
2016,05,05,15,08,18.50
2016,05,05,15,09,18.40
2016,05,05,15,10,18.50
2016,05,05,15,11,18.50
2016,05,05,15,12,18.40
2016,05,05,15,13,18.50
2016,05,05,15,14,18.60
2016,05,05,15,15,18.60
2016,05,05,15,16,18.60
2016,05,05,15,17,18.50
2016,05,05,15,18,18.50
2016,05,05,15,19,18.50
2016,05,05,15,20,18.60
2016,05,05,15,21,18.60
2016,05,05,15,22,18.60
2016,05,05,15,23,18.60
2016,05,05,15,24,18.60
2016,05,05,15,25,18.70
2016,05,05,15,26,18.70
2016,05,05,15,27,18.70
2016,05,05,15,28,18.80
2016,05,05,15,29,18.70
2016,05,05,15,30,18.70
2016,05,05,15,31,18.70
2016,05,05,15,32,18.70
2016,05,05,15,33,18.80
2016,05,05,15,34,18.70
2016,05,05,15,35,18.70
2016,05,05,15,36,18.60
2016,05,05,15,37,18.60
2016,05,05,15,38,18.60
2016,05,05,15,39,18.50
2016,05,05,15,40,18.40
2016,05,05,15,41,18.40
2016,05,05,15,42,18.40
2016,05,05,15,43,18.50
2016,05,05,15,44,18.50
2016,05,05,15,45,18.60
2016,05,05,15,46,18.60
2016,05,05,15,47,18.70
2016,05,05,15,48,18.60
2016,05,05,15,49,18.70
2016,05,05,15,50,18.70
2016,05,05,15,51,18.80
2016,05,05,15,52,18.90
2016,05,05,15,53,19.00
2016,05,05,15,54,19.00
2016,05,05,15,55,19.10
2016,05,05,15,56,19.10
2016,05,05,15,57,19.20
2016,05,05,15,58,19.10
2016,05,05,15,59,19.00
2016,05,05,16,00,18.90
2016,05,05,16,01,18.90
2016,05,05,16,02,18.90
2016,05,05,16,03,18.90
2016,05,05,16,04,18.90
2016,05,05,16,05,18.90
2016,05,05,16,06,19.00
2016,05,05,16,07,19.00
2016,05,05,16,08,19.00
2016,05,05,16,09,19.00
2016,05,05,16,10,19.00
2016,05,05,16,11,19.00
2016,05,05,16,12,19.00
2016,05,05,16,13,19.00
2016,05,05,16,14,18.90
2016,05,05,16,15,18.90
2016,05,05,16,16,18.90
2016,05,05,16,17,18.90
2016,05,05,16,18,18.90
2016,05,05,16,19,18.90
2016,05,05,16,20,18.90
2016,05,05,16,21,18.80
2016,05,05,16,22,18.70
2016,05,05,16,23,18.70
2016,05,05,16,24,18.70
2016,05,05,16,25,18.60
2016,05,05,16,26,18.50
2016,05,05,16,27,18.50
2016,05,05,16,28,18.30
2016,05,05,16,29,18.10
2016,05,05,16,30,17.90
2016,05,05,16,31,17.80
2016,05,05,16,32,17.70
2016,05,05,16,33,17.70
2016,05,05,16,34,17.50
2016,05,05,16,35,17.50
2016,05,05,16,36,17.50
2016,05,05,16,37,17.50
2016,05,05,16,38,17.50
2016,05,05,16,39,17.50
2016,05,05,16,40,17.50
2016,05,05,16,41,17.40
2016,05,05,16,42,17.30
2016,05,05,16,43,17.30
2016,05,05,16,44,17.20
2016,05,05,16,45,17.30
2016,05,05,16,46,17.30
2016,05,05,16,47,17.40
2016,05,05,16,48,17.40
2016,05,05,16,49,17.50
2016,05,05,16,50,17.60
2016,05,05,16,51,17.70
2016,05,05,16,52,17.70
2016,05,05,16,53,17.80
2016,05,05,16,54,17.90
2016,05,05,16,55,18.00
2016,05,05,16,56,18.10
2016,05,05,16,57,18.10
2016,05,05,16,58,18.10
2016,05,05,16,59,18.20
2016,05,05,17,00,18.10
2016,05,05,17,01,18.00
2016,05,05,17,02,17.90
2016,05,05,17,03,17.80
2016,05,05,17,04,17.80
2016,05,05,17,05,17.80
2016,05,05,17,06,17.80
2016,05,05,17,07,17.80
2016,05,05,17,08,17.80
2016,05,05,17,09,17.80
2016,05,05,17,10,17.80
2016,05,05,17,11,17.70
2016,05,05,17,12,17.70
2016,05,05,17,13,17.70
2016,05,05,17,14,17.70
2016,05,05,17,15,17.60
2016,05,05,17,16,17.60
2016,05,05,17,17,17.60
2016,05,05,17,18,17.60
2016,05,05,17,19,17.60
2016,05,05,17,20,17.70
2016,05,05,17,21,17.70
2016,05,05,17,22,17.70
2016,05,05,17,23,17.80
2016,05,05,17,24,17.90
2016,05,05,17,25,18.00
2016,05,05,17,26,18.10
2016,05,05,17,27,18.20
2016,05,05,17,28,18.30
2016,05,05,17,29,18.40
2016,05,05,17,30,18.50
2016,05,05,17,31,18.60
2016,05,05,17,32,18.70
2016,05,05,17,33,18.80